Location: Darmstadt
(49.8706°N, 8.6494°E)
Time: 06:10:46
(UTC+01:00)

Cosmos 1709 Rocket - Pass Details

Date: 31 October 2020
Orbit: 949 x 1001 km, 82.9° (Epoch: 03 December)

Event Time Altitude Azimuth Distance (km) Brightness Sun altitude
Rises 18:40:45 0° 352° (N) 3,732 7.1 -16.1°
Reaches altitude 10° 18:43:21 10° 356° (N) 2,782 6.4 -16.5°
Maximum altitude 18:49:41 62° 76° (ENE) 1,125 4.0 -17.5°
Drops below altitude 10° 18:55:59 10° 157° (SSE) 2,763 6.1 -18.5°
Sets 18:58:32 0° 161° (SSE) 3,705 6.8 -18.9°
